owner,sensor,date,latitude,longitude,air_pressure(mBar),qcFlag 
TABS,ioos:station:wmo:42043:1,2003-03-01T00:09:00Z,28.9818,-94.9186,968.59,11133222 
TABS,ioos:station:wmo:42043:1,2003-03-01T00:39:00Z,28.9818,-94.9186,968.72,11133222 
TABS,ioos:station:wmo:42043:1,2003-03-01T01:09:00Z,28.9818,-94.9186,968.72,11133222 
TABS,ioos:station:wmo:42043:1,2003-03-01T01:39:00Z,28.9818,-94.9186,969.23,11133222 
TABS,ioos:station:wmo:42043:1,2003-03-01T02:09:00Z,28.9818,-94.9186,969.61,11133222 
TABS,ioos:station:wmo:42043:1,2003-03-01T02:39:00Z,28.9818,-94.9186,969.8,11133222 
TABS,ioos:station:wmo:42043:1,2003-03-01T03:09:00Z,28.9818,-94.9186,970.37,11133222 
TABS,ioos:station:wmo:42043:1,2003-03-01T03:39:00Z,28.9818,-94.9186,971.2,11133222 
TABS,ioos:station:wmo:42043:1,2003-03-01T04:09:00Z,28.9818,-94.9186,972.08,11133222 
TABS,ioos:station:wmo:42043:1,2003-03-01T04:39:00Z,28.9818,-94.9186,972.72,11133222 
TABS,ioos:station:wmo:42043:1,2003-03-01T05:09:00Z,28.9818,-94.9186,973.42,11133222 
TABS,ioos:station:wmo:42043:1,2003-03-01T05:39:00Z,28.9818,-94.9186,973.04,11133222 
TABS,ioos:station:wmo:42043:1,2003-03-01T06:09:00Z,28.9818,-94.9186,973.54,11133222 
TABS,ioos:station:wmo:42043:1,2003-03-01T06:39:00Z,28.9818,-94.9186,974.12,11133222 
TABS,ioos:station:wmo:42043:1,2003-03-01T07:09:00Z,28.9818,-94.9186,974.88,11133222 
TABS,ioos:station:wmo:42043:1,2003-03-01T07:39:00Z,28.9818,-94.9186,975.39,11133222 
TABS,ioos:station:wmo:42043:1,2003-03-01T08:09:00Z,28.9818,-94.9186,975.64,11133222 
TABS,ioos:station:wmo:42043:1,2003-03-01T08:39:00Z,28.9818,-94.9186,975.64,11133222 
TABS,ioos:station:wmo:42043:1,2003-03-01T09:09:00Z,28.9818,-94.9186,975.83,11133222 
TABS,ioos:station:wmo:42043:1,2003-03-01T09:39:00Z,28.9818,-94.9186,975.51,11133222 
TABS,ioos:station:wmo:42043:1,2003-03-01T10:09:00Z,28.9818,-94.9186,974.69,11133222 
TABS,ioos:station:wmo:42043:1,2003-03-01T10:39:00Z,28.9818,-94.9186,974.12,11133222 
TABS,ioos:station:wmo:42043:1,2003-03-01T11:09:00Z,28.9818,-94.9186,973.86,11133222 
TABS,ioos:station:wmo:42043:1,2003-03-01T11:39:00Z,28.9818,-94.9186,973.54,11133222 
TABS,ioos:station:wmo:42043:1,2003-03-01T12:09:00Z,28.9818,-94.9186,972.28,11133222 
TABS,ioos:station:wmo:42043:1,2003-03-01T12:39:00Z,28.9818,-94.9186,971.7,11133222 
TABS,ioos:station:wmo:42043:1,2003-03-01T13:09:00Z,28.9818,-94.9186,971.96,11133222 
TABS,ioos:station:wmo:42043:1,2003-03-01T13:39:00Z,28.9818,-94.9186,973.23,11133222 
TABS,ioos:station:wmo:42043:1,2003-03-01T14:09:00Z,28.9818,-94.9186,975.32,11133222 
TABS,ioos:station:wmo:42043:1,2003-03-01T14:39:00Z,28.9818,-94.9186,978.43,11133222 
TABS,ioos:station:wmo:42043:1,2003-03-01T15:09:00Z,28.9818,-94.9186,978.75,11133222 
TABS,ioos:station:wmo:42043:1,2003-03-01T15:39:00Z,28.9818,-94.9186,977.92,11133222 
TABS,ioos:station:wmo:42043:1,2003-03-01T16:09:00Z,28.9818,-94.9186,976.78,11133222 
TABS,ioos:station:wmo:42043:1,2003-03-01T16:39:00Z,28.9818,-94.9186,977.23,11133222 
TABS,ioos:station:wmo:42043:1,2003-03-01T17:09:00Z,28.9818,-94.9186,978.88,11133222 
TABS,ioos:station:wmo:42043:1,2003-03-01T17:39:00Z,28.9818,-94.9186,987.64,11111222 
TABS,ioos:station:wmo:42043:1,2003-03-01T18:09:00Z,28.9818,-94.9186,989.48,11111222 
TABS,ioos:station:wmo:42043:1,2003-03-01T18:39:00Z,28.9818,-94.9186,988.72,11111222 
TABS,ioos:station:wmo:42043:1,2003-03-01T19:09:00Z,28.9818,-94.9186,987.32,11111222 
TABS,ioos:station:wmo:42043:1,2003-03-01T19:39:00Z,28.9818,-94.9186,988.14,11111222 
TABS,ioos:station:wmo:42043:1,2003-03-01T20:09:00Z,28.9818,-94.9186,984.65,11111222 
TABS,ioos:station:wmo:42043:1,2003-03-01T20:39:00Z,28.9818,-94.9186,981.29,11111222 
TABS,ioos:station:wmo:42043:1,2003-03-01T21:09:00Z,28.9818,-94.9186,982.3,11111222 
TABS,ioos:station:wmo:42043:1,2003-03-01T21:39:00Z,28.9818,-94.9186,982.3,11111222 
TABS,ioos:station:wmo:42043:1,2003-03-01T22:09:00Z,28.9818,-94.9186,980.65,11111222 
TABS,ioos:station:wmo:42043:1,2003-03-01T22:39:00Z,28.9818,-94.9186,980.08,11111222 
TABS,ioos:station:wmo:42043:1,2003-03-01T23:09:00Z,28.9818,-94.9186,981.04,11111222 
TABS,ioos:station:wmo:42043:1,2003-03-01T23:39:00Z,28.9818,-94.9186,980.27,11111222 
TABS,ioos:station:wmo:42043:1,2003-03-02T00:09:00Z,28.9818,-94.9186,979.83,11133222 
TABS,ioos:station:wmo:42043:1,2003-03-02T00:39:00Z,28.9818,-94.9186,979.89,11133222 
TABS,ioos:station:wmo:42043:1,2003-03-02T01:09:00Z,28.9818,-94.9186,979.83,11133222 
TABS,ioos:station:wmo:42043:1,2003-03-02T01:39:00Z,28.9818,-94.9186,980.15,11111222 
TABS,ioos:station:wmo:42043:1,2003-03-02T02:09:00Z,28.9818,-94.9186,980.4,11111222 
TABS,ioos:station:wmo:42043:1,2003-03-02T02:39:00Z,28.9818,-94.9186,980.15,11111222 
TABS,ioos:station:wmo:42043:1,2003-03-02T03:09:00Z,28.9818,-94.9186,978.12,11133222 
TABS,ioos:station:wmo:42043:1,2003-03-02T03:39:00Z,28.9818,-94.9186,979.13,11133222 
TABS,ioos:station:wmo:42043:1,2003-03-02T04:09:00Z,28.9818,-94.9186,978.24,11133222 
TABS,ioos:station:wmo:42043:1,2003-03-02T04:39:00Z,28.9818,-94.9186,978.94,11133222 
TABS,ioos:station:wmo:42043:1,2003-03-02T05:09:00Z,28.9818,-94.9186,979.51,11133222 
TABS,ioos:station:wmo:42043:1,2003-03-02T05:39:00Z,28.9818,-94.9186,979.32,11133222 
TABS,ioos:station:wmo:42043:1,2003-03-02T06:09:00Z,28.9818,-94.9186,979.51,11133222 
TABS,ioos:station:wmo:42043:1,2003-03-02T06:39:00Z,28.9818,-94.9186,979.58,11133222 
TABS,ioos:station:wmo:42043:1,2003-03-02T07:09:00Z,28.9818,-94.9186,979.51,11133222 
TABS,ioos:station:wmo:42043:1,2003-03-02T07:39:00Z,28.9818,-94.9186,979.45,11133222 
TABS,ioos:station:wmo:42043:1,2003-03-02T08:09:00Z,28.9818,-94.9186,979.32,11133222 
TABS,ioos:station:wmo:42043:1,2003-03-02T08:39:00Z,28.9818,-94.9186,979.0,11133222 
TABS,ioos:station:wmo:42043:1,2003-03-02T09:09:00Z,28.9818,-94.9186,978.5,11133222 
TABS,ioos:station:wmo:42043:1,2003-03-02T09:39:00Z,28.9818,-94.9186,978.31,11133222 
TABS,ioos:station:wmo:42043:1,2003-03-02T10:09:00Z,28.9818,-94.9186,978.12,11133222 
TABS,ioos:station:wmo:42043:1,2003-03-02T10:39:00Z,28.9818,-94.9186,977.8,11133222 
TABS,ioos:station:wmo:42043:1,2003-03-02T11:09:00Z,28.9818,-94.9186,977.73,11133222 
TABS,ioos:station:wmo:42043:1,2003-03-02T11:39:00Z,28.9818,-94.9186,977.86,11133222 
TABS,ioos:station:wmo:42043:1,2003-03-02T12:09:00Z,28.9818,-94.9186,978.05,11133222 
TABS,ioos:station:wmo:42043:1,2003-03-02T12:39:00Z,28.9818,-94.9186,977.8,11133222 
TABS,ioos:station:wmo:42043:1,2003-03-02T13:09:00Z,28.9818,-94.9186,978.69,11133222 
TABS,ioos:station:wmo:42043:1,2003-03-02T13:39:00Z,28.9818,-94.9186,978.31,11133222 
TABS,ioos:station:wmo:42043:1,2003-03-02T14:09:00Z,28.9818,-94.9186,978.62,11133222 
TABS,ioos:station:wmo:42043:1,2003-03-02T14:39:00Z,28.9818,-94.9186,979.89,11133222 
TABS,ioos:station:wmo:42043:1,2003-03-02T15:09:00Z,28.9818,-94.9186,982.3,11111222 
TABS,ioos:station:wmo:42043:1,2003-03-02T15:39:00Z,28.9818,-94.9186,987.95,11111222 
TABS,ioos:station:wmo:42043:1,2003-03-02T16:09:00Z,28.9818,-94.9186,986.43,11111222 
TABS,ioos:station:wmo:42043:1,2003-03-02T16:39:00Z,28.9818,-94.9186,991.51,11111222 
TABS,ioos:station:wmo:42043:1,2003-03-02T17:09:00Z,28.9818,-94.9186,992.4,11111222 
TABS,ioos:station:wmo:42043:1,2003-03-02T17:39:00Z,28.9818,-94.9186,989.6,11111222 
TABS,ioos:station:wmo:42043:1,2003-03-02T18:09:00Z,28.9818,-94.9186,991.32,11111222 
TABS,ioos:station:wmo:42043:1,2003-03-02T18:39:00Z,28.9818,-94.9186,986.18,11111222 
TABS,ioos:station:wmo:42043:1,2003-03-02T19:09:00Z,28.9818,-94.9186,987.45,11111222 
TABS,ioos:station:wmo:42043:1,2003-03-02T19:39:00Z,28.9818,-94.9186,988.14,11111222 
TABS,ioos:station:wmo:42043:1,2003-03-02T20:09:00Z,28.9818,-94.9186,986.18,11111222 
TABS,ioos:station:wmo:42043:1,2003-03-02T20:39:00Z,28.9818,-94.9186,983.64,11111222 
TABS,ioos:station:wmo:42043:1,2003-03-02T21:09:00Z,28.9818,-94.9186,982.05,11111222 
TABS,ioos:station:wmo:42043:1,2003-03-02T21:39:00Z,28.9818,-94.9186,983.07,11111222 
TABS,ioos:station:wmo:42043:1,2003-03-02T22:09:00Z,28.9818,-94.9186,981.86,11111222 
TABS,ioos:station:wmo:42043:1,2003-03-02T22:39:00Z,28.9818,-94.9186,981.48,11111222 
TABS,ioos:station:wmo:42043:1,2003-03-02T23:09:00Z,28.9818,-94.9186,980.78,11111222 
TABS,ioos:station:wmo:42043:1,2003-03-02T23:39:00Z,28.9818,-94.9186,980.02,11111222 
TABS,ioos:station:wmo:42043:1,2003-03-03T00:09:00Z,28.9818,-94.9186,979.32,11133222 
TABS,ioos:station:wmo:42043:1,2003-03-03T00:39:00Z,28.9818,-94.9186,979.13,11133222 
TABS,ioos:station:wmo:42043:1,2003-03-03T01:09:00Z,28.9818,-94.9186,979.0,11133222 
TABS,ioos:station:wmo:42043:1,2003-03-03T01:39:00Z,28.9818,-94.9186,979.51,11133222 
TABS,ioos:station:wmo:42043:1,2003-03-03T02:09:00Z,28.9818,-94.9186,979.51,11133222 
TABS,ioos:station:wmo:42043:1,2003-03-03T02:39:00Z,28.9818,-94.9186,979.64,11133222 
TABS,ioos:station:wmo:42043:1,2003-03-03T03:09:00Z,28.9818,-94.9186,979.89,11133222 
TABS,ioos:station:wmo:42043:1,2003-03-03T04:39:00Z,28.9818,-94.9186,980.53,11111222 
TABS,ioos:station:wmo:42043:1,2003-03-03T05:09:00Z,28.9818,-94.9186,980.65,11111222 
TABS,ioos:station:wmo:42043:1,2003-03-03T05:39:00Z,28.9818,-94.9186,980.84,11111222 
TABS,ioos:station:wmo:42043:1,2003-03-03T06:09:00Z,28.9818,-94.9186,980.4,11111222 
TABS,ioos:station:wmo:42043:1,2003-03-03T06:39:00Z,28.9818,-94.9186,980.15,11111222 
TABS,ioos:station:wmo:42043:1,2003-03-03T07:09:00Z,28.9818,-94.9186,979.96,11133222 
TABS,ioos:station:wmo:42043:1,2003-03-03T07:39:00Z,28.9818,-94.9186,979.38,11133222 
TABS,ioos:station:wmo:42043:1,2003-03-03T08:09:00Z,28.9818,-94.9186,978.81,11133222 
TABS,ioos:station:wmo:42043:1,2003-03-03T08:39:00Z,28.9818,-94.9186,978.56,11133222 
TABS,ioos:station:wmo:42043:1,2003-03-03T09:09:00Z,28.9818,-94.9186,977.92,11133222 
TABS,ioos:station:wmo:42043:1,2003-03-03T09:39:00Z,28.9818,-94.9186,977.8,11133222 
TABS,ioos:station:wmo:42043:1,2003-03-03T10:09:00Z,28.9818,-94.9186,977.48,11133222 
TABS,ioos:station:wmo:42043:1,2003-03-03T10:39:00Z,28.9818,-94.9186,977.23,11133222 
TABS,ioos:station:wmo:42043:1,2003-03-03T11:09:00Z,28.9818,-94.9186,976.34,11133222 
TABS,ioos:station:wmo:42043:1,2003-03-03T11:39:00Z,28.9818,-94.9186,975.58,11133222 
TABS,ioos:station:wmo:42043:1,2003-03-03T12:09:00Z,28.9818,-94.9186,974.62,11133222 
TABS,ioos:station:wmo:42043:1,2003-03-03T12:39:00Z,28.9818,-94.9186,974.37,11133222 
TABS,ioos:station:wmo:42043:1,2003-03-03T13:09:00Z,28.9818,-94.9186,972.91,11133222 
TABS,ioos:station:wmo:42043:1,2003-03-03T13:39:00Z,28.9818,-94.9186,974.94,11133222 
TABS,ioos:station:wmo:42043:1,2003-03-03T14:09:00Z,28.9818,-94.9186,972.4,11133222 
TABS,ioos:station:wmo:42043:1,2003-03-03T14:39:00Z,28.9818,-94.9186,975.32,11133222 
TABS,ioos:station:wmo:42043:1,2003-03-03T15:09:00Z,28.9818,-94.9186,975.64,11133222 
TABS,ioos:station:wmo:42043:1,2003-03-03T15:39:00Z,28.9818,-94.9186,977.04,11133222 
TABS,ioos:station:wmo:42043:1,2003-03-03T16:09:00Z,28.9818,-94.9186,977.16,11133222 
TABS,ioos:station:wmo:42043:1,2003-03-03T16:39:00Z,28.9818,-94.9186,983.96,11111222 
TABS,ioos:station:wmo:42043:1,2003-03-03T17:09:00Z,28.9818,-94.9186,990.37,11111222 
TABS,ioos:station:wmo:42043:1,2003-03-03T17:39:00Z,28.9818,-94.9186,987.64,11111222 
TABS,ioos:station:wmo:42043:1,2003-03-03T18:09:00Z,28.9818,-94.9186,993.03,11111222 
TABS,ioos:station:wmo:42043:1,2003-03-03T18:39:00Z,28.9818,-94.9186,984.65,11111222 
TABS,ioos:station:wmo:42043:1,2003-03-03T19:09:00Z,28.9818,-94.9186,981.73,11111222 
TABS,ioos:station:wmo:42043:1,2003-03-03T19:39:00Z,28.9818,-94.9186,978.62,11133222 
TABS,ioos:station:wmo:42043:1,2003-03-03T20:09:00Z,28.9818,-94.9186,974.94,11133222 
TABS,ioos:station:wmo:42043:1,2003-03-03T20:39:00Z,28.9818,-94.9186,971.13,11133222 
TABS,ioos:station:wmo:42043:1,2003-03-03T21:09:00Z,28.9818,-94.9186,968.21,11133222 
TABS,ioos:station:wmo:42043:1,2003-03-03T21:39:00Z,28.9818,-94.9186,969.04,11133222 
TABS,ioos:station:wmo:42043:1,2003-03-03T22:09:00Z,28.9818,-94.9186,970.43,11133222 
TABS,ioos:station:wmo:42043:1,2003-03-03T22:39:00Z,28.9818,-94.9186,969.29,11133222 
TABS,ioos:station:wmo:42043:1,2003-03-03T23:09:00Z,28.9818,-94.9186,970.37,11133222 
TABS,ioos:station:wmo:42043:1,2003-03-03T23:39:00Z,28.9818,-94.9186,970.5,11133222 
TABS,ioos:station:wmo:42043:1,2003-03-04T00:09:00Z,28.9818,-94.9186,969.48,11133222 
TABS,ioos:station:wmo:42043:1,2003-03-04T00:39:00Z,28.9818,-94.9186,970.18,11133222 
TABS,ioos:station:wmo:42043:1,2003-03-04T01:09:00Z,28.9818,-94.9186,970.82,11133222 
TABS,ioos:station:wmo:42043:1,2003-03-04T01:39:00Z,28.9818,-94.9186,970.12,11133222 
TABS,ioos:station:wmo:42043:1,2003-03-04T02:09:00Z,28.9818,-94.9186,973.54,11133222 
TABS,ioos:station:wmo:42043:1,2003-03-04T02:39:00Z,28.9818,-94.9186,975.39,11133222 
TABS,ioos:station:wmo:42043:1,2003-03-04T03:09:00Z,28.9818,-94.9186,976.59,11133222 
TABS,ioos:station:wmo:42043:1,2003-03-04T03:39:00Z,28.9818,-94.9186,977.29,11133222 
TABS,ioos:station:wmo:42043:1,2003-03-04T04:09:00Z,28.9818,-94.9186,977.04,11133222 
TABS,ioos:station:wmo:42043:1,2003-03-04T04:39:00Z,28.9818,-94.9186,977.04,11133222 
TABS,ioos:station:wmo:42043:1,2003-03-04T05:09:00Z,28.9818,-94.9186,977.29,11133222 
TABS,ioos:station:wmo:42043:1,2003-03-04T05:39:00Z,28.9818,-94.9186,977.92,11133222 
TABS,ioos:station:wmo:42043:1,2003-03-04T06:09:00Z,28.9818,-94.9186,978.37,11133222 
TABS,ioos:station:wmo:42043:1,2003-03-04T06:39:00Z,28.9818,-94.9186,973.61,11133222 
TABS,ioos:station:wmo:42043:1,2003-03-04T07:09:00Z,28.9818,-94.9186,968.47,11133222 
TABS,ioos:station:wmo:42043:1,2003-03-04T07:39:00Z,28.9818,-94.9186,966.94,11133222 
TABS,ioos:station:wmo:42043:1,2003-03-04T08:09:00Z,28.9818,-94.9186,966.05,11133222 
TABS,ioos:station:wmo:42043:1,2003-03-04T08:39:00Z,28.9818,-94.9186,965.48,11133222 
TABS,ioos:station:wmo:42043:1,2003-03-04T09:09:00Z,28.9818,-94.9186,964.59,11133222 
TABS,ioos:station:wmo:42043:1,2003-03-04T09:39:00Z,28.9818,-94.9186,964.28,11133222 
TABS,ioos:station:wmo:42043:1,2003-03-04T10:09:00Z,28.9818,-94.9186,964.66,11133222 
TABS,ioos:station:wmo:42043:1,2003-03-04T10:39:00Z,28.9818,-94.9186,964.85,11133222 
TABS,ioos:station:wmo:42043:1,2003-03-04T11:09:00Z,28.9818,-94.9186,965.86,11133222 
TABS,ioos:station:wmo:42043:1,2003-03-04T11:39:00Z,28.9818,-94.9186,966.75,11133222 
TABS,ioos:station:wmo:42043:1,2003-03-04T12:09:00Z,28.9818,-94.9186,967.71,11133222 
TABS,ioos:station:wmo:42043:1,2003-03-04T12:39:00Z,28.9818,-94.9186,968.78,11133222 
TABS,ioos:station:wmo:42043:1,2003-03-04T13:09:00Z,28.9818,-94.9186,969.48,11133222 
TABS,ioos:station:wmo:42043:1,2003-03-04T13:39:00Z,28.9818,-94.9186,970.12,11133222 
TABS,ioos:station:wmo:42043:1,2003-03-04T14:09:00Z,28.9818,-94.9186,971.45,11133222 
TABS,ioos:station:wmo:42043:1,2003-03-04T14:39:00Z,28.9818,-94.9186,972.02,11133222 
TABS,ioos:station:wmo:42043:1,2003-03-04T15:09:00Z,28.9818,-94.9186,972.78,11133222 
TABS,ioos:station:wmo:42043:1,2003-03-04T15:39:00Z,28.9818,-94.9186,974.24,11133222 
TABS,ioos:station:wmo:42043:1,2003-03-04T16:09:00Z,28.9818,-94.9186,975.51,11133222 
TABS,ioos:station:wmo:42043:1,2003-03-04T16:39:00Z,28.9818,-94.9186,977.48,11133222 
TABS,ioos:station:wmo:42043:1,2003-03-04T17:09:00Z,28.9818,-94.9186,981.73,11111222 
TABS,ioos:station:wmo:42043:1,2003-03-04T17:39:00Z,28.9818,-94.9186,982.43,11111222 
TABS,ioos:station:wmo:42043:1,2003-03-04T18:09:00Z,28.9818,-94.9186,988.02,11111222 
TABS,ioos:station:wmo:42043:1,2003-03-04T18:39:00Z,28.9818,-94.9186,986.18,11111222 
TABS,ioos:station:wmo:42043:1,2003-03-04T19:09:00Z,28.9818,-94.9186,985.99,11111222 
TABS,ioos:station:wmo:42043:1,2003-03-04T19:39:00Z,28.9818,-94.9186,988.65,11111222 
TABS,ioos:station:wmo:42043:1,2003-03-04T20:09:00Z,28.9818,-94.9186,989.03,11111222 
TABS,ioos:station:wmo:42043:1,2003-03-04T20:39:00Z,28.9818,-94.9186,986.18,11111222 
TABS,ioos:station:wmo:42043:1,2003-03-04T21:09:00Z,28.9818,-94.9186,986.56,11111222 
TABS,ioos:station:wmo:42043:1,2003-03-04T21:39:00Z,28.9818,-94.9186,987.95,11111222 
TABS,ioos:station:wmo:42043:1,2003-03-04T22:09:00Z,28.9818,-94.9186,984.65,11111222 
TABS,ioos:station:wmo:42043:1,2003-03-04T22:39:00Z,28.9818,-94.9186,982.56,11111222 
TABS,ioos:station:wmo:42043:1,2003-03-04T23:09:00Z,28.9818,-94.9186,981.67,11111222 
TABS,ioos:station:wmo:42043:1,2003-03-04T23:39:00Z,28.9818,-94.9186,980.91,11111222 
TABS,ioos:station:wmo:42043:1,2003-03-05T00:09:00Z,28.9818,-94.9186,980.4,11111222 
TABS,ioos:station:wmo:42043:1,2003-03-05T00:39:00Z,28.9818,-94.9186,980.34,11111222 
TABS,ioos:station:wmo:42043:1,2003-03-05T01:09:00Z,28.9818,-94.9186,980.59,11111222 
TABS,ioos:station:wmo:42043:1,2003-03-05T01:39:00Z,28.9818,-94.9186,980.59,11111222 
TABS,ioos:station:wmo:42043:1,2003-03-05T02:09:00Z,28.9818,-94.9186,980.59,11111222 
TABS,ioos:station:wmo:42043:1,2003-03-05T02:39:00Z,28.9818,-94.9186,980.53,11111222 
TABS,ioos:station:wmo:42043:1,2003-03-05T03:09:00Z,28.9818,-94.9186,980.78,11111222 
TABS,ioos:station:wmo:42043:1,2003-03-05T03:39:00Z,28.9818,-94.9186,980.65,11111222 
TABS,ioos:station:wmo:42043:1,2003-03-05T04:09:00Z,28.9818,-94.9186,980.78,11111222 
TABS,ioos:station:wmo:42043:1,2003-03-05T04:39:00Z,28.9818,-94.9186,980.97,11111222 
TABS,ioos:station:wmo:42043:1,2003-03-05T05:09:00Z,28.9818,-94.9186,980.84,11111222 
TABS,ioos:station:wmo:42043:1,2003-03-05T05:39:00Z,28.9818,-94.9186,981.04,11111222 
TABS,ioos:station:wmo:42043:1,2003-03-05T06:09:00Z,28.9818,-94.9186,981.42,11111222 
TABS,ioos:station:wmo:42043:1,2003-03-05T06:39:00Z,28.9818,-94.9186,981.42,11111222 
TABS,ioos:station:wmo:42043:1,2003-03-05T07:09:00Z,28.9818,-94.9186,981.48,11111222 
TABS,ioos:station:wmo:42043:1,2003-03-05T07:39:00Z,28.9818,-94.9186,981.67,11111222 
TABS,ioos:station:wmo:42043:1,2003-03-05T08:09:00Z,28.9818,-94.9186,982.69,11111222 
TABS,ioos:station:wmo:42043:1,2003-03-05T08:39:00Z,28.9818,-94.9186,983.07,11111222 
TABS,ioos:station:wmo:42043:1,2003-03-05T09:09:00Z,28.9818,-94.9186,984.27,11111222 
TABS,ioos:station:wmo:42043:1,2003-03-05T09:39:00Z,28.9818,-94.9186,985.48,11111222 
TABS,ioos:station:wmo:42043:1,2003-03-05T10:09:00Z,28.9818,-94.9186,984.84,11111222 
TABS,ioos:station:wmo:42043:1,2003-03-05T10:39:00Z,28.9818,-94.9186,984.27,11111222 
TABS,ioos:station:wmo:42043:1,2003-03-05T11:09:00Z,28.9818,-94.9186,985.22,11111222 
TABS,ioos:station:wmo:42043:1,2003-03-05T11:39:00Z,28.9818,-94.9186,985.29,11111222 
TABS,ioos:station:wmo:42043:1,2003-03-05T12:09:00Z,28.9818,-94.9186,985.16,11111222 
TABS,ioos:station:wmo:42043:1,2003-03-05T12:39:00Z,28.9818,-94.9186,985.1,11111222 
TABS,ioos:station:wmo:42043:1,2003-03-05T13:09:00Z,28.9818,-94.9186,986.68,11111222 
TABS,ioos:station:wmo:42043:1,2003-03-05T13:39:00Z,28.9818,-94.9186,987.0,11111222 
TABS,ioos:station:wmo:42043:1,2003-03-05T14:09:00Z,28.9818,-94.9186,988.08,11111222 
TABS,ioos:station:wmo:42043:1,2003-03-05T14:39:00Z,28.9818,-94.9186,988.53,11111222 
TABS,ioos:station:wmo:42043:1,2003-03-05T15:09:00Z,28.9818,-94.9186,994.11,11111222 
TABS,ioos:station:wmo:42043:1,2003-03-05T15:39:00Z,28.9818,-94.9186,992.91,11111222 
TABS,ioos:station:wmo:42043:1,2003-03-05T16:09:00Z,28.9818,-94.9186,992.02,11111222 
TABS,ioos:station:wmo:42043:1,2003-03-05T16:39:00Z,28.9818,-94.9186,991.83,11111222 
TABS,ioos:station:wmo:42043:1,2003-03-05T17:09:00Z,28.9818,-94.9186,989.67,11111222 
TABS,ioos:station:wmo:42043:1,2003-03-05T17:39:00Z,28.9818,-94.9186,992.84,11111222 
TABS,ioos:station:wmo:42043:1,2003-03-05T18:09:00Z,28.9818,-94.9186,991.25,11111222 
TABS,ioos:station:wmo:42043:1,2003-03-05T18:39:00Z,28.9818,-94.9186,989.35,11111222 
TABS,ioos:station:wmo:42043:1,2003-03-05T19:09:00Z,28.9818,-94.9186,988.91,11111222 
TABS,ioos:station:wmo:42043:1,2003-03-05T19:39:00Z,28.9818,-94.9186,995.19,11111222 
TABS,ioos:station:wmo:42043:1,2003-03-05T20:09:00Z,28.9818,-94.9186,992.4,11111222 
TABS,ioos:station:wmo:42043:1,2003-03-05T20:39:00Z,28.9818,-94.9186,995.51,11111222 
TABS,ioos:station:wmo:42043:1,2003-03-05T21:09:00Z,28.9818,-94.9186,997.35,11111222 
TABS,ioos:station:wmo:42043:1,2003-03-05T21:39:00Z,28.9818,-94.9186,993.73,11111222 
TABS,ioos:station:wmo:42043:1,2003-03-05T22:09:00Z,28.9818,-94.9186,992.46,11111222 
TABS,ioos:station:wmo:42043:1,2003-03-05T22:39:00Z,28.9818,-94.9186,992.08,11111222 
TABS,ioos:station:wmo:42043:1,2003-03-05T23:09:00Z,28.9818,-94.9186,991.06,11111222 
TABS,ioos:station:wmo:42043:1,2003-03-05T23:39:00Z,28.9818,-94.9186,989.67,11111222 
TABS,ioos:station:wmo:42043:1,2003-03-06T00:09:00Z,28.9818,-94.9186,988.14,11111222 
TABS,ioos:station:wmo:42043:1,2003-03-06T00:39:00Z,28.9818,-94.9186,988.27,11111222 
TABS,ioos:station:wmo:42043:1,2003-03-06T01:09:00Z,28.9818,-94.9186,982.56,11111222 
TABS,ioos:station:wmo:42043:1,2003-03-06T01:39:00Z,28.9818,-94.9186,980.27,11111222 
TABS,ioos:station:wmo:42043:1,2003-03-06T02:09:00Z,28.9818,-94.9186,978.24,11133222 
TABS,ioos:station:wmo:42043:1,2003-03-06T02:39:00Z,28.9818,-94.9186,978.24,11133222 
TABS,ioos:station:wmo:42043:1,2003-03-06T03:09:00Z,28.9818,-94.9186,976.66,11133222 
TABS,ioos:station:wmo:42043:1,2003-03-06T03:39:00Z,28.9818,-94.9186,973.8,11133222 
TABS,ioos:station:wmo:42043:1,2003-03-06T04:09:00Z,28.9818,-94.9186,971.39,11133222 
TABS,ioos:station:wmo:42043:1,2003-03-06T04:39:00Z,28.9818,-94.9186,970.05,11133222 
TABS,ioos:station:wmo:42043:1,2003-03-06T05:09:00Z,28.9818,-94.9186,970.12,11133222 
TABS,ioos:station:wmo:42043:1,2003-03-06T05:39:00Z,28.9818,-94.9186,971.51,11133222 
TABS,ioos:station:wmo:42043:1,2003-03-06T06:09:00Z,28.9818,-94.9186,972.47,11133222 
TABS,ioos:station:wmo:42043:1,2003-03-06T06:39:00Z,28.9818,-94.9186,972.4,11133222 
TABS,ioos:station:wmo:42043:1,2003-03-06T07:09:00Z,28.9818,-94.9186,972.15,11133222 
TABS,ioos:station:wmo:42043:1,2003-03-06T07:39:00Z,28.9818,-94.9186,971.89,11133222 
TABS,ioos:station:wmo:42043:1,2003-03-06T08:09:00Z,28.9818,-94.9186,971.39,11133222 
TABS,ioos:station:wmo:42043:1,2003-03-06T08:39:00Z,28.9818,-94.9186,970.69,11133222 
TABS,ioos:station:wmo:42043:1,2003-03-06T09:09:00Z,28.9818,-94.9186,970.31,11133222 
TABS,ioos:station:wmo:42043:1,2003-03-06T09:39:00Z,28.9818,-94.9186,968.15,11133222 
TABS,ioos:station:wmo:42043:1,2003-03-06T10:09:00Z,28.9818,-94.9186,969.17,11133222 
TABS,ioos:station:wmo:42043:1,2003-03-06T10:39:00Z,28.9818,-94.9186,968.97,11133222 
TABS,ioos:station:wmo:42043:1,2003-03-06T11:09:00Z,28.9818,-94.9186,967.96,11133222 
TABS,ioos:station:wmo:42043:1,2003-03-06T11:39:00Z,28.9818,-94.9186,966.69,11133222 
TABS,ioos:station:wmo:42043:1,2003-03-06T12:09:00Z,28.9818,-94.9186,966.44,11133222 
TABS,ioos:station:wmo:42043:1,2003-03-06T12:39:00Z,28.9818,-94.9186,967.07,11133222 
TABS,ioos:station:wmo:42043:1,2003-03-06T13:09:00Z,28.9818,-94.9186,967.71,11133222 
TABS,ioos:station:wmo:42043:1,2003-03-06T13:39:00Z,28.9818,-94.9186,968.21,11133222 
TABS,ioos:station:wmo:42043:1,2003-03-06T14:09:00Z,28.9818,-94.9186,970.12,11133222 
TABS,ioos:station:wmo:42043:1,2003-03-06T14:39:00Z,28.9818,-94.9186,969.61,11133222 
TABS,ioos:station:wmo:42043:1,2003-03-06T15:09:00Z,28.9818,-94.9186,971.7,11133222 
TABS,ioos:station:wmo:42043:1,2003-03-06T15:39:00Z,28.9818,-94.9186,972.47,11133222 
TABS,ioos:station:wmo:42043:1,2003-03-06T16:09:00Z,28.9818,-94.9186,971.58,11133222 
TABS,ioos:station:wmo:42043:1,2003-03-06T16:39:00Z,28.9818,-94.9186,973.99,11133222 
TABS,ioos:station:wmo:42043:1,2003-03-06T17:09:00Z,28.9818,-94.9186,974.05,11133222 
TABS,ioos:station:wmo:42043:1,2003-03-06T17:39:00Z,28.9818,-94.9186,974.18,11133222 
TABS,ioos:station:wmo:42043:1,2003-03-06T18:09:00Z,28.9818,-94.9186,978.24,11133222 
TABS,ioos:station:wmo:42043:1,2003-03-06T19:09:00Z,28.9818,-94.9186,979.38,11133222 
TABS,ioos:station:wmo:42043:1,2003-03-06T19:39:00Z,28.9818,-94.9186,981.61,11111222 
TABS,ioos:station:wmo:42043:1,2003-03-06T20:09:00Z,28.9818,-94.9186,983.19,11111222 
TABS,ioos:station:wmo:42043:1,2003-03-06T20:39:00Z,28.9818,-94.9186,984.46,11111222 
TABS,ioos:station:wmo:42043:1,2003-03-06T21:09:00Z,28.9818,-94.9186,984.72,11111222 
TABS,ioos:station:wmo:42043:1,2003-03-06T21:39:00Z,28.9818,-94.9186,979.32,11133222 